Weather History for Weatherford, OK

Change the Weather History Date:

Wednesday, December 18, 2013

  Actual Average (KJWG) Record (KJWG)
Temperature  
Mean Temperature 46 °F -  
Max Temperature 64 °F 50 °F 72 °F (1978)
Min Temperature 28 °F 27 °F 4 °F (1983)
Degree Days  
Heating Degree Days 19    
Moisture  
Dew Point 34 °F    
Average Humidity 60    
Maximum Humidity 93    
Minimum Humidity 34    
Precipitation  
Precipitation 0.00 in - - ()
Sea Level Pressure  
Sea Level Pressure 30.02 in    
Wind  
Wind Speed 7 mph (SSW)    
Max Wind Speed 23 mph    
Max Gust Speed 33 mph    
Visibility 10 miles    
Events      
Averages and records for this station are not official NWS values.
T = Trace of Precipitation, MM = Missing Value Source: NWS Daily Summary

Daily Weather History Graph

Daily Weather History Graph

Search for Another Location

Airport:

Trip Planner

Search our weather history database for the weather conditions in past years. The results will help you decide how hot, cold, wet, or windy it might be!

Date:

Astronomy

Dec. 18, 2013 Rise Set
Actual Time 7:38 AM CST 5:24 PM CST
Civil Twilight 7:10 AM CST 5:52 PM CST
Nautical Twilight 6:38 AM CST 6:24 PM CST
Astronomical Twilight 6:07 AM CST 6:55 PM CST
Moon 6:54 PM CST (12/18) 8:22 AM CST (12/18)
Length of Visible Light 10h 42m
Length of Day
9h 45m
Full, 98% of the Moon is Illuminated
Dec 18
Full
Dec 25
Last Quarter
Jan 1
New
Jan 7
First Quarter
Jan 15
Full

Hourly Weather History & Observations

Time (CST) Temp. Windchill Dew Point Humidity Pressure Visibility Wind Dir Wind Speed Gust Speed Precip Events Conditions
12:15 AM 32.0 °F - 28.4 °F 87% 30.26 in 10.0 mi Calm Calm - N/A   Clear
12:35 AM 32.0 °F - 26.6 °F 80% 30.25 in 10.0 mi Calm Calm - N/A   Clear
12:55 AM 32.0 °F - 28.4 °F 87% 30.24 in 10.0 mi Calm Calm - N/A   Clear
1:15 AM 32.0 °F - 28.4 °F 87% 30.23 in 10.0 mi Calm Calm - N/A   Clear
1:35 AM 32.0 °F - 26.6 °F 80% 30.22 in 10.0 mi Calm Calm - N/A   Clear
1:55 AM 30.2 °F - 28.4 °F 93% 30.21 in 10.0 mi Calm Calm - N/A   Clear
2:15 AM 32.0 °F - 26.6 °F 80% 30.21 in 10.0 mi Calm Calm - N/A   Clear
2:35 AM 28.4 °F 24.6 °F 26.6 °F 93% 30.20 in 10.0 mi SSW 3.5 mph - N/A   Clear
2:55 AM 35.6 °F 30.7 °F 28.4 °F 75% 30.19 in 10.0 mi SSW 5.8 mph - N/A   Clear
3:15 AM 37.4 °F 32.1 °F 30.2 °F 75% 30.19 in 10.0 mi SSW 6.9 mph - N/A   Clear
3:35 AM 37.4 °F 32.1 °F 30.2 °F 75% 30.18 in 10.0 mi SSW 6.9 mph - N/A   Clear
3:55 AM 37.4 °F 32.8 °F 28.4 °F 70% 30.18 in 10.0 mi SSW 5.8 mph - N/A   Clear
4:15 AM 37.4 °F 32.8 °F 30.2 °F 75% 30.18 in 10.0 mi SSW 5.8 mph - N/A   Clear
4:35 AM 37.4 °F 34.9 °F 28.4 °F 70% 30.17 in 10.0 mi SSW 3.5 mph - N/A   Clear
4:55 AM 35.6 °F - 28.4 °F 75% 30.16 in 10.0 mi Calm Calm - N/A   Clear
5:15 AM 33.8 °F - 28.4 °F 81% 30.15 in 10.0 mi Calm Calm - N/A   Clear
5:35 AM 33.8 °F - 28.4 °F 81% 30.15 in 10.0 mi Calm Calm - N/A   Clear
5:55 AM 35.6 °F 32.8 °F 28.4 °F 75% 30.14 in 10.0 mi South 3.5 mph - N/A   Clear
6:15 AM 33.8 °F 29.6 °F 28.4 °F 81% 30.14 in 10.0 mi SSW 4.6 mph - N/A   Clear
6:35 AM 35.6 °F 30.7 °F 28.4 °F 75% 30.14 in 10.0 mi SSW 5.8 mph - N/A   Clear
6:55 AM 35.6 °F 29.9 °F 28.4 °F 75% 30.13 in 10.0 mi SSW 6.9 mph - N/A   Clear
7:15 AM 35.6 °F 28.6 °F 30.2 °F 81% 30.13 in 10.0 mi SSW 9.2 mph - N/A   Clear
7:35 AM 35.6 °F 29.2 °F 28.4 °F 75% 30.12 in 10.0 mi SSW 8.1 mph - N/A   Clear
7:55 AM 35.6 °F 28.6 °F 30.2 °F 81% 30.12 in 10.0 mi SW 9.2 mph - N/A   Clear
8:15 AM 37.4 °F 30.8 °F 30.2 °F 75% 30.12 in 10.0 mi SSW 9.2 mph - N/A   Clear
8:35 AM 37.4 °F 32.1 °F 30.2 °F 75% 30.12 in 10.0 mi SSW 6.9 mph - N/A   Clear
8:55 AM 39.2 °F 33.0 °F 32.0 °F 75% 30.11 in 10.0 mi SSW 9.2 mph - N/A   Clear
9:15 AM 42.8 °F 37.5 °F 32.0 °F 66% 30.11 in 10.0 mi SSW 9.2 mph - N/A   Clear
9:35 AM 44.6 °F 38.8 °F 33.8 °F 66% 30.11 in 10.0 mi SSW 11.5 mph - N/A   Clear
9:55 AM 46.4 °F 41.9 °F 33.8 °F 62% 30.11 in 10.0 mi SSW 9.2 mph - N/A   Clear
10:15 AM 50.0 °F - 35.6 °F 58% 30.11 in 10.0 mi SSW 9.2 mph - N/A   Clear
10:35 AM 51.8 °F - 35.6 °F 54% 30.10 in 10.0 mi SSW 13.8 mph 17.3 mph N/A   Clear
10:55 AM 53.6 °F - 35.6 °F 51% 30.09 in 10.0 mi SSW 11.5 mph - N/A   Clear
11:15 AM 53.6 °F - 35.6 °F 51% 30.08 in 10.0 mi SSW 13.8 mph 19.6 mph N/A   Clear
11:35 AM 55.4 °F - 37.4 °F 51% 30.07 in 10.0 mi SSW 13.8 mph 20.7 mph N/A   Clear
11:55 AM 57.2 °F - 37.4 °F 48% 30.06 in 10.0 mi SSW 17.3 mph 24.2 mph N/A   Clear
12:15 PM 59.0 °F - 37.4 °F 45% 30.03 in 10.0 mi SSW 17.3 mph 21.9 mph N/A   Clear
12:35 PM 60.8 °F - 35.6 °F 39% 30.02 in 10.0 mi SSW 18.4 mph 25.3 mph N/A   Clear
12:55 PM 60.8 °F - 35.6 °F 39% 30.00 in 10.0 mi SSW 15.0 mph 21.9 mph N/A   Clear
1:15 PM 60.8 °F - 35.6 °F 39% 29.98 in 10.0 mi SSW 16.1 mph 24.2 mph N/A   Clear
1:35 PM 62.6 °F - 35.6 °F 37% 29.97 in 10.0 mi SSW 18.4 mph 28.8 mph N/A   Clear
1:55 PM 62.6 °F - 35.6 °F 37% 29.95 in 10.0 mi SSW 19.6 mph 26.5 mph N/A   Clear
2:15 PM 62.6 °F - 35.6 °F 37% 29.94 in 10.0 mi SSW 15.0 mph 29.9 mph N/A   Clear
2:35 PM 64.4 °F - 35.6 °F 34% 29.93 in 10.0 mi South 17.3 mph 24.2 mph N/A   Clear
2:55 PM 64.4 °F - 35.6 °F 34% 29.92 in 10.0 mi SSW 20.7 mph 27.6 mph N/A   Clear
3:15 PM 64.4 °F - 35.6 °F 34% 29.91 in 10.0 mi SSW 19.6 mph 26.5 mph N/A   Clear
3:35 PM 64.4 °F - 35.6 °F 34% 29.90 in 10.0 mi SSW 19.6 mph 26.5 mph N/A   Clear
3:55 PM 64.4 °F - 35.6 °F 34% 29.90 in 10.0 mi South 15.0 mph 25.3 mph N/A   Clear
4:15 PM 64.4 °F - 35.6 °F 34% 29.89 in 10.0 mi South 19.6 mph 28.8 mph N/A   Clear
4:35 PM 64.4 °F - 35.6 °F 34% 29.88 in 10.0 mi South 16.1 mph 24.2 mph N/A   Clear
4:55 PM 62.6 °F - 35.6 °F 37% 29.88 in 10.0 mi South 16.1 mph 23.0 mph N/A   Clear
5:15 PM 62.6 °F - 35.6 °F 37% 29.87 in 10.0 mi South 17.3 mph 24.2 mph N/A   Clear
5:35 PM 60.8 °F - 35.6 °F 39% 29.87 in 10.0 mi South 13.8 mph 21.9 mph N/A   Clear
5:55 PM 59.0 °F - 35.6 °F 42% 29.87 in 10.0 mi South 11.5 mph 16.1 mph N/A   Clear
6:15 PM 59.0 °F - 35.6 °F 42% 29.87 in 10.0 mi South 10.4 mph - N/A   Clear
6:35 PM 55.4 °F - 35.6 °F 47% 29.87 in 10.0 mi South 9.2 mph - N/A   Clear
6:55 PM 53.6 °F - 37.4 °F 54% 29.86 in 10.0 mi South 6.9 mph - N/A   Clear
7:15 PM 53.6 °F - 37.4 °F 54% 29.86 in 10.0 mi South 8.1 mph - N/A   Clear
7:35 PM 53.6 °F - 39.2 °F 58% 29.86 in 10.0 mi South 9.2 mph - N/A   Clear
7:55 PM 55.4 °F - 39.2 °F 54% 29.86 in 10.0 mi South 11.5 mph 16.1 mph N/A   Clear
8:15 PM 55.4 °F - 41.0 °F 58% 29.86 in 10.0 mi South 13.8 mph - N/A   Clear
8:35 PM 55.4 °F - 41.0 °F 58% 29.85 in 10.0 mi South 12.7 mph 18.4 mph N/A   Clear
8:55 PM 55.4 °F - 41.0 °F 58% 29.85 in 10.0 mi South 10.4 mph - N/A   Clear
9:15 PM 55.4 °F - 41.0 °F 58% 29.85 in 10.0 mi South 10.4 mph - N/A   Clear
9:35 PM 55.4 °F - 39.2 °F 54% 29.85 in 10.0 mi South 13.8 mph 18.4 mph N/A   Clear
9:55 PM 55.4 °F - 39.2 °F 54% 29.84 in 10.0 mi SSW 11.5 mph 19.6 mph N/A   Clear
10:15 PM 55.4 °F - 41.0 °F 58% 29.84 in 10.0 mi South 13.8 mph 19.6 mph N/A   Clear
10:35 PM 55.4 °F - 41.0 °F 58% 29.83 in 10.0 mi South 13.8 mph 18.4 mph N/A   Clear
10:55 PM 53.6 °F - 42.8 °F 67% 29.82 in 10.0 mi South 15.0 mph - N/A   Clear
11:15 PM 55.4 °F - 42.8 °F 63% 29.82 in 10.0 mi South 13.8 mph 24.2 mph N/A   Clear
11:35 PM 55.4 °F - 42.8 °F 63% 29.81 in 10.0 mi South 18.4 mph 25.3 mph N/A   Clear
11:55 PM 55.4 °F - 44.6 °F 67% 29.81 in 10.0 mi SSW 23.0 mph 33.4 mph N/A   Clear